Orbital Elements at Epoch 2459200.5 (2020-Dec-17.0) TDB
Reference: JPL 15 (heliocentric ecliptic J2000)
Element | Value | Uncertainty (1-sigma) | Units |
e | .04710053858148882 | 4.9444e-08 | |
a | 2.192322527596975 | 8.5806e-09 | au |
q | 2.089062955802827 | 1.0915e-07 | au |
i | 2.489509458862765 | 4.4087e-06 | deg |
node | 333.8627930486902 | 0.00010804 | deg |
peri | 49.34255824045584 | 0.00011668 | deg |
M | 127.5215950466614 | 4.2573e-05 | deg |
tp | 2458780.512531508066 (2019-Oct-24.01253151) | 0.0001403 | TDB |
period | 1185.646153514409 3.25 | 6.9608e-06 1.906e-08 | d yr |
n | .303631904791251 | 1.7826e-09 | deg/d |
Q | 2.295582099391124 | 8.9847e-09 | au |
|
| | Orbit Determination Parameters
Additional Information
|